RH
11 12 15 22 15 22 27 28 27 32 32 30 29 35 38 34 40 52 27 36 41 49 54 64 75 89 99 99 95 91 89 90 95 88 83 75 73 70 68 68 66 65 69 68 63 60 67 73 75
12 13 21 22 19 34 33 28 31 28 28 26 28 30 35 38 28 27 32 37 40 46 49 58 72 79 92 99 98 90 87 91 94 98 87 83 77 73 68 70 65 64 74 70 69 63 70 74 75
14 20 26 20 34 40 38 30 29 25 26 27 32 30 31 35 26 26 34 37 39 44 52 55 71 77 80 86 96 92 89 96 100 98 98 86 94 78 72 72 70 66 69 77 76 81 78 77 74
16 15 16 27 37 34 33 30 27 26 24 26 30 35 26 24 24 29 32 36 40 46 52 55 67 76 77 75 81 89 91 91 98 94 100 95 90 84 71 71 67 69 73 77 76 82 79 74 72
12 17 20 33 36 32 28 27 26 28 26 29 30 34 30 23 22 31 37 39 41 43 48 51 66 74 75 71 73 79 85 91 91 99 98 100 97 90 79 70 68 63 80 81 76 75 80 74 74
17 18 24 40 37 32 28 26 25 26 25 25 29 29 28 22 22 28 29 36 39 40 44 44 61 72 74 69 71 69 89 86 86 98 100 99 99 97 87 77 68 66 73 84 79 72 79 75 72
18 25 33 34 35 33 28 23 25 25 26 26 24 29 26 24 21 22 24 30 37 39 42 45 47 63 63 67 67 57 76 89 71 79 95 100 100 99 97 86 74 69 67 79 84 75 68 79 71
19 25 29 33 36 35 26 23 22 23 25 19 21 31 31 24 19 20 21 26 34 36 40 46 41 54 62 64 72 69 70 85 76 74 80 90 99 100 100 99 82 74 68 69 81 73 64 71 71
13 30 36 32 32 28 22 25 21 18 21 22 22 23 21 18 18 18 19 23 31 35 37 46 42 49 57 58 62 62 65 58 64 73 73 70 78 93 98 100 99 79 69 67 77 81 70 70 70
22 32 30 24 23 25 23 24 23 23 23 24 22 20 17 18 17 18 19 23 30 36 37 42 46 44 54 55 52 59 60 60 59 76 66 79 77 77 89 99 100 100 79 66 72 76 80 71 76
22 26 22 23 21 20 24 24 22 25 26 24 24 22 18 17 18 19 20 22 27 32 34 40 46 42 50 50 51 53 52 56 64 61 75 93 90 76 75 86 96 100 99 82 82 81 87 73 76
21 20 20 21 21 22 25 22 24 24 23 19 20 17 17 18 19 20 20 22 28 32 34 36 40 41 45 47 46 50 48 53 63 78 77 72 88 91 100 90 89 94 99 100 84 88 78 85 77
21 21 19 19 20 22 21 24 25 24 19 16 16 17 18 19 19 20 21 22 29 32 34 37 41 39 40 47 40 54 49 52 51 58 57 67 80 81 89 97 97 96 91 100 100 87 80 86 83
18 18 19 20 21 21 23 24 22 22 18 18 18 20 18 20 20 20 23 23 30 33 35 36 40 36 36 46 37 47 48 53 53 58 60 62 77 86 82 90 99 98 97 100 100 98 80 77 80
18 22 21 21 20 24 22 29 27 20 18 19 19 18 18 19 20 22 23 26 30 33 34 36 39 35 36 45 37 48 52 47 52 58 67 74 71 93 88 97 94 94 98 98 100 100 92 83 77
21 22 29 18 19 18 24 35 23 19 19 19 18 17 18 20 20 20 24 28 29 32 34 36 38 37 38 42 43 47 50 48 57 59 70 72 76 91 94 95 95 95 98 98 99 98 98 96 93
24 32 26 22 18 19 26 31 22 18 19 21 21 20 19 20 19 22 25 28 28 32 34 37 38 38 42 43 46 50 46 55 57 61 66 66 69 84 91 92 95 96 94 98 98 99 100 94 87
22 27 31 26 20 24 30 30 23 20 21 22 22 22 21 22 21 22 24 27 27 32 35 38 38 39 44 43 47 54 49 60 52 59 70 68 71 80 86 94 97 95 98 98 98 97 99 100 94
20 26 30 24 18 24 28 29 26 22 22 22 23 24 24 24 22 23 24 27 27 33 37 40 39 40 43 46 49 56 58 61 56 62 80 74 81 76 81 91 98 99 98 96 98 100 99 94 98
24 28 32 24 20 23 27 29 25 23 20 23 25 27 30 30 27 24 24 26 30 35 38 39 40 40 43 46 50 50 58 64 65 61 82 74 81 74 77 81 91 99 99 98 97 98 100 100 99
30 28 29 30 23 20 25 31 29 22 20 22 26 26 28 29 30 28 26 27 28 33 37 39 39 40 44 46 49 53 56 70 72 67 76 77 85 79 83 72 82 94 99 100 100 97 99 99 98
37 28 24 28 35 43 27 82 30 22 24 25 26 30 31 32 31 27 27 28 29 32 36 40 40 41 44 46 50 51 62 72 72 68 70 70 80 82 78 82 75 86 93 98 98 97 95 100 100
33 28 29 32 45 58 47 71 46 26 29 26 26 28 32 33 31 29 29 28 28 32 36 41 40 41 45 46 51 48 72 71 70 82 72 74 76 78 79 81 78 86 90 93 97 98 98 97 100
28 30 32 36 51 87 68 68 78 42 31 27 25 30 33 34 33 30 29 29 29 33 38 42 41 43 45 48 52 49 69 70 74 72 77 74 74 75 77 78 82 78 96 93 96 98 99 98 99
34 54 90 84 90 87 43 44 72 33 27 25 28 34 38 37 39 38 34 33 30 36 43 43 43 46 46 50 49 68 69 60 64 73 70 74 75 74 80 74 78 77 82 88 95 99 99 100 100
35 57 86 81 86 82 26 55 69 31 27 27 29 40 41 41 43 42 38 34 30 39 45 44 46 45 48 50 49 68 63 57 60 60 64 71 68 71 70 72 71 72 74 78 84 96 99 100 100
40 66 38 74 58 83 76 60 44 29 37 39 48 51 57 55 50 49 44 31 32 41 45 46 42 45 48 46 52 65 58 63 63 66 71 72 65 68 76 86 74 69 70 84 78 87 98 100 99
43 49 60 87 85 88 76 63 80 70 48 53 58 61 65 68 66 58 52 31 35 39 42 39 40 45 47 45 61 54 47 57 60 67 74 71 73 69 79 82 85 96 84 96 85 89 98 100 100
83 96 94 87 96 96 94 82 98 71 72 70 70 71 78 80 78 67 48 33 35 38 37 35 40 44 46 47 56 50 49 50 53 65 77 78 73 80 81 85 92 86 94 99 84 95 97 100 100
77 92 93 90 93 98 89 76 94 69 69 77 84 82 79 75 69 55 34 35 36 36 30 35 39 45 45 52 51 52 53 56 69 77 77 73 72 80 91 91 95 83 89 94 84 96 98 100 100
Wind_Speed
29 33 31 6 4 7 15 12 20 26 8 18 20 23 23 15 7 6 10 23 25 29 31 34 37 34 33 28 19 15 12 9 8 12 8 6 5 3 3 4 5 6 6 6 9 10 7 7 8
32 35 4 1 5 6 7 13 21 20 14 14 18 14 13 12 13 4 9 24 27 31 34 34 34 34 33 31 24 16 12 10 6 8 11 8 7 8 7 7 7 7 6 6 7 8 8 8 10
31 14 3 4 6 6 5 16 12 15 23 14 7 14 8 8 14 11 20 23 27 33 34 36 34 33 31 30 30 17 15 13 8 6 9 10 9 10 9 9 8 9 9 8 8 8 10 10 12
10 5 4 7 13 13 13 12 16 9 13 16 13 13 11 22 13 19 23 25 30 34 36 37 35 34 32 30 30 30 14 15 14 5 6 10 10 12 12 11 11 10 10 11 11 11 12 11 13
8 1 5 6 21 10 16 17 17 23 7 16 9 11 10 23 25 24 26 29 33 36 37 40 35 34 33 31 30 30 29 16 14 12 5 6 12 13 14 13 13 12 12 12 13 13 13 13 14
4 2 7 8 14 11 14 17 20 18 20 17 19 11 10 25 29 26 29 31 33 35 38 44 38 34 31 30 32 30 29 32 27 19 13 6 9 13 14 14 14 14 14 14 15 14 15 15 15
4 5 9 11 9 13 10 15 20 20 19 20 9 11 4 21 27 27 29 29 31 35 37 44 47 41 38 34 33 31 29 29 34 31 24 17 6 9 14 16 16 16 16 15 16 16 16 18 17
3 5 4 6 6 8 9 20 15 17 20 10 6 7 7 18 26 25 27 28 30 36 36 40 48 46 40 36 33 32 30 28 31 33 32 30 18 8 9 16 19 19 19 17 17 17 17 20 20
4 6 5 4 5 5 15 18 22 20 19 17 13 10 16 24 25 27 27 29 31 36 37 35 45 44 41 37 38 37 33 34 34 33 37 36 30 22 21 11 16 20 21 21 19 19 19 20 21
6 5 5 9 15 16 18 19 15 10 16 13 11 17 24 24 27 25 26 25 30 33 35 35 41 44 40 38 41 37 36 36 36 30 41 38 31 29 26 23 9 18 24 24 22 21 21 19 22
8 12 13 15 18 17 14 20 9 9 12 8 9 8 18 22 23 24 25 25 28 32 37 35 38 44 38 39 38 37 42 40 36 37 37 32 35 33 31 28 27 15 13 26 24 23 23 22 23
24 19 18 17 17 13 18 12 12 11 8 9 10 16 18 17 18 23 25 22 26 30 33 33 36 41 38 37 36 33 39 38 37 34 33 35 34 34 34 31 29 25 15 12 28 27 25 25 23
20 15 18 18 18 15 15 14 8 10 9 17 16 15 13 18 21 21 23 26 24 29 31 31 32 39 38 34 38 30 34 31 34 36 39 37 34 31 28 30 29 30 24 19 16 29 26 26 25
12 16 13 11 15 17 18 13 7 7 9 9 9 8 12 17 18 18 21 27 24 28 31 30 30 36 36 31 37 33 32 28 30 31 35 38 37 34 32 26 28 29 30 25 17 23 23 25 27
17 15 9 6 7 13 20 12 10 6 8 8 8 7 9 15 17 17 19 24 22 26 28 31 30 35 35 30 36 31 31 32 26 28 30 35 38 36 34 29 27 28 28 27 21 10 18 21 25
7 6 6 6 7 4 9 5 5 6 8 7 8 7 8 8 16 18 19 20 21 22 25 27 29 34 31 32 33 32 31 30 25 24 27 35 36 31 33 32 31 29 28 28 23 16 17 20 16
6 6 14 5 7 5 8 6 3 5 8 7 7 8 8 8 15 16 16 17 20 19 23 26 29 33 29 31 31 30 32 30 30 29 29 35 34 30 28 31 33 31 30 30 29 23 16 27 23
2 9 7 6 4 15 11 7 5 6 9 7 7 7 7 7 7 13 14 15 19 17 21 24 28 31 28 32 31 30 32 26 28 30 30 36 34 28 28 29 33 32 30 31 30 30 25 15 25
13 15 10 5 1 8 9 8 8 6 6 6 6 6 6 6 15 18 20 16 19 20 22 25 29 30 28 30 31 30 32 24 31 28 28 35 30 28 26 29 30 34 29 31 28 27 27 23 12
10 16 8 5 0 3 9 8 7 7 5 6 6 6 7 7 11 18 21 22 20 20 21 24 25 27 25 27 28 29 28 23 27 32 24 35 28 26 27 27 29 33 31 27 30 27 27 19 12
9 5 5 7 3 3 5 4 6 5 4 6 6 6 7 7 7 13 19 21 20 18 18 19 19 22 21 25 28 29 27 19 25 31 27 31 26 28 28 29 28 28 28 29 27 27 24 20 24
4 6 8 7 5 2 5 2 4 5 7 7 7 8 7 8 9 15 17 19 17 13 14 14 17 21 21 23 26 28 26 19 22 26 25 30 23 24 29 28 28 26 28 28 28 25 26 21 21
4 4 5 4 4 5 6 4 4 6 5 6 7 7 7 8 8 13 18 20 18 12 11 11 17 19 20 23 24 28 15 20 24 21 28 26 23 22 25 27 27 26 26 26 29 25 26 23 19
6 4 1 3 3 2 4 5 5 3 4 4 4 6 7 8 9 17 19 19 16 12 10 11 16 17 19 22 22 27 18 23 25 28 25 24 24 23 23 28 25 28 24 25 29 27 23 24 23
2 5 3 4 3 5 8 3 6 6 7 4 5 7 8 8 7 13 19 20 17 11 8 13 16 17 19 20 23 15 18 27 27 25 23 24 24 25 25 28 26 26 26 25 27 29 26 23 22
3 4 4 5 1 3 3 3 5 7 8 7 7 6 8 8 7 14 22 18 18 11 11 15 16 18 20 22 24 12 21 25 23 20 22 20 23 25 25 26 26 25 27 26 28 27 27 25 23
3 4 2 4 4 4 3 4 2 8 7 7 7 7 7 8 8 14 25 16 16 14 15 17 18 19 21 25 22 18 24 24 25 18 19 23 24 26 27 24 28 25 27 24 29 29 26 28 26
4 2 4 3 2 3 5 4 4 2 1 5 6 6 8 8 9 16 22 11 16 16 17 19 19 20 22 24 16 24 28 25 27 19 17 24 26 26 26 26 27 25 25 21 30 30 27 28 26
4 3 5 4 3 4 1 6 4 5 4 5 7 8 10 10 10 15 16 14 17 18 19 19 21 21 23 24 17 27 28 26 27 22 15 25 27 26 26 26 25 26 23 20 33 30 27 28 26
5 5 4 4 5 2 3 6 4 4 6 6 8 9 8 9 11 12 12 16 17 19 19 20 22 19 22 19 23 27 27 27 25 20 24 29 28 26 26 25 22 27 26 26 34 29 28 27 27
Wind_Direction
319 320 322 310 53 68 48 40 62 33 68 68 64 82 93 61 21 77 340 21 15 7 3 2 5 6 9 8 6 3 8 6 337 320 301 270 255 236 199 183 168 162 171 181 182 185 185 187 175
317 316 326 347 80 73 46 51 57 49 37 97 61 72 55 62 36 6 32 22 10 2 3 5 5 8 7 9 6 356 357 359 348 314 306 276 245 234 218 208 192 184 191 200 198 191 181 192 172
312 294 63 99 56 5 97 30 39 59 39 47 100 57 53 347 8 359 35 21 11 8 7 8 7 8 9 8 9 355 347 348 349 329 298 281 248 237 229 217 211 204 198 208 204 200 183 189 175
306 352 5 80 90 44 75 41 36 48 38 36 124 71 73 37 0 36 35 26 21 16 11 9 7 7 8 10 7 7 347 335 339 324 314 286 270 248 233 231 223 221 212 208 199 208 192 192 186
271 358 72 90 68 64 62 53 56 54 66 32 87 86 74 28 20 52 46 36 28 20 15 13 7 6 7 9 9 7 7 354 326 331 299 278 272 252 239 233 232 220 221 213 204 202 209 199 195
359 90 82 77 71 74 57 66 60 62 45 32 87 88 59 32 24 46 41 39 32 24 16 16 14 10 9 11 11 10 4 7 3 341 333 275 262 258 242 238 236 233 224 217 212 205 216 210 205
45 59 83 106 89 61 60 74 70 67 56 33 50 61 32 33 26 37 36 37 34 30 20 15 18 17 19 14 7 14 11 7 5 357 354 344 301 258 257 240 237 230 232 223 215 211 210 222 215
47 79 53 39 75 60 87 74 74 64 48 69 49 48 23 31 28 36 36 38 36 31 24 16 16 19 18 13 13 9 11 4 2 9 357 353 352 353 249 256 238 229 227 224 223 215 217 228 221
25 59 69 82 69 86 42 82 76 69 75 63 62 66 51 44 32 33 32 35 34 28 25 19 16 18 17 13 15 16 12 12 9 5 4 353 353 354 351 315 253 235 228 226 223 222 221 229 225
77 79 60 104 101 82 63 52 75 74 63 60 61 54 51 45 34 31 29 32 32 28 22 21 17 19 16 13 16 14 15 12 14 7 11 359 355 357 347 339 312 235 238 229 219 222 230 228 227
23 89 88 89 101 92 85 74 61 74 58 60 71 58 54 46 40 33 32 35 35 27 21 20 17 15 17 12 11 13 14 10 15 14 6 4 3 3 349 344 337 336 249 232 225 219 227 222 226
77 79 86 89 83 89 80 75 68 83 96 80 81 69 62 50 39 33 25 28 37 30 20 17 14 14 14 11 9 11 14 11 16 17 14 9 9 11 356 350 341 335 337 277 227 222 222 228 225
94 96 93 92 85 92 92 80 76 62 81 80 72 75 69 61 44 29 27 22 34 30 21 17 15 13 11 11 8 9 6 10 8 3 7 5 3 358 350 356 344 342 336 325 252 226 222 230 225
129 110 110 112 111 100 87 64 76 56 77 75 73 73 76 76 58 35 31 20 30 26 23 18 16 14 9 11 6 8 5 0 8 3 4 5 9 4 355 350 351 346 339 332 302 240 224 233 233
122 120 120 137 136 123 104 59 61 31 81 84 77 68 76 81 61 46 40 30 25 26 21 17 16 13 10 12 5 7 3 360 4 1 8 8 10 5 2 0 351 348 340 328 332 256 225 241 239
144 108 97 360 128 46 85 87 50 67 65 71 77 62 58 62 64 51 43 34 18 25 25 19 15 12 11 8 7 3 1 1 357 7 11 8 10 6 5 359 354 349 348 350 350 349 249 241 244
207 118 121 86 73 71 79 110 83 77 62 45 55 56 50 36 44 44 36 30 19 26 24 22 16 11 10 7 9 1 358 2 10 10 4 4 7 4 3 0 355 351 348 353 357 338 325 239 253
227 105 77 92 38 95 96 122 111 63 78 52 48 50 45 39 23 36 30 26 18 26 25 24 19 10 9 11 8 3 360 10 2 4 6 4 7 2 0 359 359 358 354 351 351 353 328 305 236
97 99 105 100 357 96 124 131 140 116 96 85 67 50 39 38 30 27 22 25 24 31 30 26 19 12 10 13 10 359 350 6 1 1 353 354 2 358 356 358 355 358 356 354 349 353 347 318 291
61 105 103 85 320 138 141 156 151 142 162 142 107 61 54 31 23 20 20 26 31 37 32 24 20 11 10 11 10 3 356 355 359 359 354 357 359 1 354 355 354 354 353 350 357 354 353 324 347
35 76 122 129 199 67 155 151 153 183 153 111 79 70 48 49 24 15 22 21 21 30 25 20 16 10 8 9 7 2 356 2 1 1 358 359 355 357 356 353 351 350 352 351 347 354 348 331 325
68 332 99 131 153 185 62 247 155 145 100 74 54 51 42 35 22 17 18 15 10 18 18 19 18 13 10 10 9 4 357 13 6 1 354 349 351 353 359 353 350 348 351 349 346 342 346 336 325
141 216 126 208 103 74 346 77 270 86 54 44 38 49 40 30 30 12 11 2 351 357 16 26 19 13 10 11 10 2 12 20 5 5 354 354 348 350 354 352 351 349 349 346 346 340 339 337 316
167 116 220 330 98 42 221 130 276 153 135 51 31 44 40 27 15 11 354 338 340 354 19 22 17 17 13 10 9 2 29 12 3 359 359 350 346 348 348 352 349 349 344 344 345 343 330 333 324
253 107 2 5 8 219 200 176 232 126 101 87 44 43 29 19 4 350 327 329 334 354 34 28 21 23 17 14 7 17 13 8 11 3 352 348 345 345 347 350 348 348 345 342 340 340 340 330 327
168 130 146 188 228 281 153 233 243 133 99 66 50 47 24 352 340 324 315 322 334 3 43 32 32 25 20 14 5 2 5 3 2 360 354 353 348 344 346 350 349 348 347 343 344 338 337 335 327
348 72 72 92 335 51 236 341 346 130 68 46 36 22 339 316 312 304 310 323 2 40 44 43 33 27 21 11 3 13 360 353 349 346 348 353 359 349 346 346 347 348 348 345 346 338 333 334 336
78 41 70 1 98 284 289 233 222 101 15 18 333 323 298 289 289 291 302 356 43 47 45 35 33 26 18 6 30 7 358 358 351 331 344 360 357 355 355 350 348 345 346 349 350 341 334 333 334
11 38 51 96 121 167 254 271 209 179 174 241 271 271 264 269 268 276 297 45 44 43 38 34 28 21 15 5 16 8 5 360 353 352 2 1 359 358 358 352 351 353 347 348 354 343 336 334 336
121 150 133 123 261 225 145 274 199 178 208 217 263 256 260 251 264 274 49 49 45 42 33 30 21 17 15 19 7 2 358 358 16 27 5 3 1 2 358 358 356 359 353 354 354 346 338 335 336